When you browse on this site, cookies collect data to enhance your experience and personalize the content and advertising you see.
Visit our Privacy Policy to learn more. By continuing to use the site, you agree to this use of cookies and data.

Stündliche Wetter Haluziya

Heute, 2 Juli, Donnerstag

Zeit Temperatur Niederschläge Wind Luftdruck Luftfeuchtigkeit
00:00 +18°C° 0 mm 2 m/S 742 mmHg 89%
01:00 +18°C° 0 mm 2 m/S 742 mmHg 90%
02:00 +18°C° 0 mm 2 m/S 742 mmHg 93%
03:00 +18°C° 0.2 mm 2 m/S 741 mmHg 94%
04:00 +18°C° 0.2 mm 2 m/S 741 mmHg 95%
05:00 +18°C° 0.2 mm 3 m/S 741 mmHg 96%
06:00 +20°C° 0.2 mm 3 m/S 741 mmHg 93%
07:00 +21°C° 0.2 mm 3 m/S 741 mmHg 89%
08:00 +23°C° 0 mm 4 m/S 742 mmHg 85%
09:00 +25°C° 0.7 mm 4 m/S 741 mmHg 81%
10:00 +26°C° 0.7 mm 4 m/S 741 mmHg 77%
11:00 +27°C° 0.7 mm 4 m/S 741 mmHg 73%
12:00 +27°C° 0.6 mm 4 m/S 741 mmHg 73%
13:00 +27°C° 0.6 mm 4 m/S 741 mmHg 74%
14:00 +27°C° 0.6 mm 3 m/S 742 mmHg 74%
15:00 +27°C° 0.1 mm 2 m/S 742 mmHg 74%
16:00 +27°C° 0.1 mm 2 m/S 741 mmHg 73%
17:00 +27°C° 0.1 mm 1 m/S 741 mmHg 73%
18:00 +25°C° 0.2 mm 1 m/S 741 mmHg 76%
19:00 +24°C° 0.2 mm 1 m/S 741 mmHg 78%
20:00 +23°C° 0.2 mm 1 m/S 742 mmHg 81%
21:00 +23°C° 0.5 mm 1 m/S 741 mmHg 84%
22:00 +22°C° 0.5 mm 1 m/S 741 mmHg 87%
23:00 +21°C° 0.5 mm 1 m/S 741 mmHg 90%

Morgen, 3 Juli, Freitag

Zeit Temperatur Niederschläge Wind Luftdruck Luftfeuchtigkeit
00:00 +21°C° 0.2 mm 1 m/S 741 mmHg 89%
01:00 +21°C° 0.2 mm 1 m/S 741 mmHg 88%
02:00 +18°C° 0.2 mm 0 m/S 741 mmHg 88%
03:00 +20°C° 0 mm 1 m/S 741 mmHg 89%
04:00 +20°C° 0 mm 1 m/S 741 mmHg 90%
05:00 +20°C° 0 mm 1 m/S 740 mmHg 91%
06:00 +21°C° 0.1 mm 1 m/S 741 mmHg 90%
07:00 +21°C° 0.1 mm 1 m/S 741 mmHg 89%
08:00 +21°C° 0.1 mm 2 m/S 741 mmHg 89%
09:00 +23°C° 0 mm 2 m/S 741 mmHg 87%
10:00 +23°C° 0 mm 2 m/S 741 mmHg 85%
11:00 +24°C° 0 mm 2 m/S 741 mmHg 83%
12:00 +25°C° 0.5 mm 2 m/S 741 mmHg 79%
13:00 +26°C° 0.5 mm 1 m/S 741 mmHg 74%
14:00 +27°C° 0.5 mm 1 m/S 740 mmHg 70%
15:00 +26°C° 1.4 mm 1 m/S 740 mmHg 76%
16:00 +24°C° 1.4 mm 2 m/S 741 mmHg 82%
17:00 +23°C° 1.4 mm 2 m/S 741 mmHg 88%
18:00 +23°C° 0.4 mm 2 m/S 741 mmHg 90%
19:00 +22°C° 0.4 mm 1 m/S 741 mmHg 91%
20:00 +22°C° 0.4 mm 1 m/S 741 mmHg 92%
21:00 +21°C° 0.1 mm 1 m/S 742 mmHg 93%
22:00 +20°C° 0.1 mm 1 m/S 742 mmHg 94%
23:00 +19°C° 0.1 mm 2 m/S 742 mmHg 95%

übermorgen, 4 Juli, Samstag

Zeit Temperatur Niederschläge Wind Luftdruck Luftfeuchtigkeit
00:00 +19°C° 0 mm 2 m/S 743 mmHg 95%
01:00 +18°C° 0 mm 2 m/S 743 mmHg 95%
02:00 +18°C° 0 mm 3 m/S 743 mmHg 95%
03:00 +17°C° 0 mm 3 m/S 743 mmHg 96%
04:00 +17°C° 0 mm 3 m/S 743 mmHg 96%
05:00 +17°C° 0 mm 3 m/S 743 mmHg 97%
06:00 +18°C° 0 mm 3 m/S 744 mmHg 93%
07:00 +19°C° 0 mm 3 m/S 744 mmHg 90%
08:00 +20°C° 0 mm 3 m/S 745 mmHg 87%
09:00 +21°C° 0 mm 3 m/S 745 mmHg 78%
10:00 +22°C° 0 mm 3 m/S 745 mmHg 69%
11:00 +25°C° 0 mm 3 m/S 746 mmHg 60%
12:00 +25°C° 0 mm 3 m/S 745 mmHg 58%
13:00 +26°C° 0 mm 3 m/S 745 mmHg 56%
14:00 +26°C° 0 mm 3 m/S 745 mmHg 54%
15:00 +26°C° 0 mm 3 m/S 745 mmHg 55%
16:00 +26°C° 0 mm 3 m/S 745 mmHg 57%
17:00 +25°C° 0 mm 3 m/S 745 mmHg 58%
18:00 +24°C° 0 mm 2 m/S 745 mmHg 64%
19:00 +21°C° 0 mm 2 m/S 745 mmHg 71%
20:00 +21°C° 0 mm 1 m/S 745 mmHg 77%
21:00 +20°C° 0 mm 1 m/S 745 mmHg 79%
22:00 +19°C° 0 mm 1 m/S 745 mmHg 82%
23:00 +16°C° 0 mm 0 m/S 745 mmHg 84%

5 Juli, Sonntag

Zeit Temperatur Niederschläge Wind Luftdruck Luftfeuchtigkeit
00:00 +15°C° 0 mm 0 m/S 745 mmHg 85%
01:00 +15°C° 0 mm 0 m/S 745 mmHg 86%
02:00 +15°C° 0 mm 0 m/S 745 mmHg 87%
03:00 +15°C° 0 mm 0 m/S 745 mmHg 87%
04:00 +15°C° 0 mm 0 m/S 745 mmHg 87%
05:00 +15°C° 0 mm 0 m/S 745 mmHg 87%
06:00 +17°C° 0 mm 0 m/S 745 mmHg 81%
07:00 +21°C° 0 mm 1 m/S 745 mmHg 75%
08:00 +23°C° 0 mm 1 m/S 745 mmHg 69%
09:00 +24°C° 0 mm 1 m/S 745 mmHg 64%
10:00 +25°C° 0 mm 1 m/S 745 mmHg 59%
11:00 +26°C° 0 mm 1 m/S 745 mmHg 55%
12:00 +27°C° 0 mm 2 m/S 745 mmHg 54%
13:00 +27°C° 0 mm 2 m/S 744 mmHg 52%
14:00 +27°C° 0 mm 2 m/S 744 mmHg 51%
15:00 +27°C° 0 mm 2 m/S 744 mmHg 53%
16:00 +27°C° 0 mm 2 m/S 743 mmHg 54%
17:00 +27°C° 0 mm 3 m/S 743 mmHg 55%
18:00 +25°C° 0 mm 2 m/S 743 mmHg 63%
19:00 +24°C° 0 mm 2 m/S 743 mmHg 70%
20:00 +21°C° 0 mm 2 m/S 743 mmHg 77%
21:00 +20°C° 0 mm 2 m/S 743 mmHg 78%
22:00 +19°C° 0 mm 2 m/S 743 mmHg 79%
23:00 +18°C° 0 mm 2 m/S 743 mmHg 81%

6 Juli, Montag

Zeit Temperatur Niederschläge Wind Luftdruck Luftfeuchtigkeit
00:00 +18°C° 0 mm 2 m/S 743 mmHg 82%
01:00 +18°C° 0 mm 2 m/S 743 mmHg 83%
02:00 +18°C° 0 mm 2 m/S 743 mmHg 84%
03:00 +18°C° 0 mm 2 m/S 742 mmHg 86%
04:00 +17°C° 0 mm 2 m/S 742 mmHg 87%
05:00 +17°C° 0 mm 2 m/S 742 mmHg 89%
06:00 +19°C° 0 mm 3 m/S 742 mmHg 84%
07:00 +21°C° 0 mm 3 m/S 742 mmHg 78%
08:00 +22°C° 0 mm 3 m/S 742 mmHg 72%
09:00 +25°C° 0 mm 3 m/S 742 mmHg 68%
10:00 +26°C° 0 mm 4 m/S 742 mmHg 64%
11:00 +27°C° 0 mm 4 m/S 742 mmHg 60%
12:00 +28°C° 0.1 mm 4 m/S 742 mmHg 60%
13:00 +28°C° 0.1 mm 4 m/S 742 mmHg 60%
14:00 +29°C° 0.1 mm 4 m/S 741 mmHg 59%
15:00 +28°C° 0.1 mm 4 m/S 741 mmHg 62%
16:00 +28°C° 0.1 mm 4 m/S 741 mmHg 65%
17:00 +28°C° 0.1 mm 3 m/S 741 mmHg 67%
18:00 +27°C° 0.2 mm 3 m/S 741 mmHg 74%
19:00 +25°C° 0.2 mm 2 m/S 741 mmHg 80%
20:00 +24°C° 0.2 mm 1 m/S 741 mmHg 86%
21:00 +23°C° 0 mm 1 m/S 741 mmHg 88%
22:00 +22°C° 0 mm 1 m/S 741 mmHg 90%
23:00 +21°C° 0 mm 1 m/S 741 mmHg 93%

7 Juli, Dienstag

Zeit Temperatur Niederschläge Wind Luftdruck Luftfeuchtigkeit
00:00 +21°C° 0 mm 1 m/S 741 mmHg 93%
01:00 +20°C° 0 mm 2 m/S 741 mmHg 93%
02:00 +19°C° 0 mm 2 m/S 741 mmHg 94%
03:00 +19°C° 0 mm 2 m/S 741 mmHg 93%
04:00 +18°C° 0 mm 3 m/S 741 mmHg 93%
05:00 +18°C° 0 mm 3 m/S 742 mmHg 92%
06:00 +18°C° 0.1 mm 3 m/S 742 mmHg 89%
07:00 +19°C° 0.1 mm 3 m/S 742 mmHg 85%
08:00 +19°C° 0.1 mm 3 m/S 743 mmHg 82%
09:00 +20°C° 0 mm 3 m/S 743 mmHg 74%
10:00 +21°C° 0 mm 4 m/S 744 mmHg 67%
11:00 +22°C° 0 mm 4 m/S 744 mmHg 60%
12:00 +22°C° 0 mm 4 m/S 744 mmHg 59%
13:00 +22°C° 0 mm 4 m/S 744 mmHg 58%
14:00 +22°C° 0 mm 4 m/S 744 mmHg 57%
15:00 +22°C° 0 mm 4 m/S 744 mmHg 60%
16:00 +21°C° 0 mm 4 m/S 744 mmHg 63%
17:00 +21°C° 0 mm 3 m/S 744 mmHg 66%
18:00 +19°C° 0 mm 3 m/S 744 mmHg 68%
19:00 +18°C° 0 mm 3 m/S 744 mmHg 71%
20:00 +17°C° 0 mm 3 m/S 744 mmHg 73%
21:00 +17°C° 0.1 mm 4 m/S 744 mmHg 75%
22:00 +17°C° 0.1 mm 4 m/S 744 mmHg 77%
23:00 +15°C° 0.1 mm 4 m/S 744 mmHg 78%
Mehr zeigen